Location: Chuathbaluk
(61.5726°N, 159.2454°W)
Time: 04:59:05
(UTC+00:00)

Transit 4A - Pass Details

Date: 27 November 2020
Orbit: 864 x 980 km, 66.8° (Epoch: 26 January)

Event Time Altitude Azimuth Distance (km) Brightness Sun altitude
Rises 17:56:32 0° 167° (SSE) 3,643 11.7 -8.4°
Reaches altitude 10° 17:59:45 10° 151° (SSE) 2,715 11.4 -8.1°
Maximum altitude 18:04:07 20° 108° (ESE) 2,110 11.0 -7.7°
Drops below altitude 10° 18:08:30 10° 64° (ENE) 2,743 10.8 -7.2°
Sets 18:11:46 0° 49° (NE) 3,694 11.2 -6.9°
